Weather in Blyudchanskoye

Russia / Novosibirsk Oblast     55˚06′52″N   76˚53′11″E
temp.,
°C
wind,
m/s
gust,
m/s
humid.,
%
clouds,
%
prec.,
mm/h
press.,
hPa
HPBL,
m
18 january, mon
mon1801:00−8˚sw9188397 0.0 1009556
04:00−7˚sw81591100 1.5 1008918
07:00−11˚wsw6138984 1.6 1008436
10:00−13˚wsw6139489 0.0 1009393
13:00−14˚w7139194 0.1 1011506
16:00−15˚w6129091 0.0 1013495
19:00−19˚w599572 0.0 1017195
22:00−22˚w49970 0.0 1019137
19 january, tue
tue1901:00−24˚w44970 0.0 102167
04:00−24˚wsw44960 0.0 102266
07:00−24˚wsw47960 0.0 102288
10:00−24˚wsw47930 0.0 102297
13:00−21˚wsw489117 0.0 1023237
16:00−20˚wsw359276 0.0 1023180
19:00−24˚w239338 0.0 102420
22:00−25˚nw229512 0.0 102420
20 january, wed
wed2001:00−26˚nne22988 0.0 102619
04:00−27˚ne339925 0.0 102625
07:00−27˚ene3410058 0.0 102761
10:00−27˚ene469698 0.0 102790
13:00−23˚e579599 0.0 1027249
16:00−22˚e5893100 0.0 1025240
19:00−22˚e61091100 0.0 1023249
22:00−20˚e61093100 0.0 1021315
21 january, thu
thu2101:00−19˚ese5897100 0.3 1020326
04:00−18˚ese3597100 1.1 1018184
07:00−20˚sse2399100 1.1 101820
10:00−20˚ssw34100100 0.0 101759
13:00−18˚sw4795100 0.1 1017249
16:00−17˚sw4893100 0.0 1015272
19:00−18˚ssw4796100 0.0 1014195
22:00−21˚sw4410072 0.0 101162
22 january, fri
fri2201:00−22˚sw4410066 0.0 100960
04:00−19˚wsw5109587 0.1 1008506
07:00−24˚w6129594 0.2 1009304
10:00−28˚wsw5119534 0.0 1012233
13:00−26˚wsw7129347 0.0 1014343
16:00−25˚wsw7129289 0.0 1015442
19:00−27˚wsw5129483 0.0 1018286
22:00−29˚wsw45970 0.0 101977